| time (UTC) | temp F | wind direction | speed MPH | gust MPH | rain 1hr in | rain 24hr in | rain mn in | humidity % | barometer mb |
| 20260509103536 | 53 | 239 | 0.0 | 0.0 | 0.00 | 0.00 | 0.00 | 78 | 1010.9 |
| 20260509102535 | 53 | 239 | 0.0 | 0.0 | 0.00 | 0.00 | 0.00 | 78 | 1011.0 |
| 20260509101535 | 54 | 60 | 0.0 | 0.0 | 0.00 | 0.00 | 0.00 | 78 | 1011.0 |
| 20260509100432 | 54 | 60 | 0.0 | 0.0 | 0.00 | 0.00 | 0.00 | 77 | 1011.0 |
| 20260509095431 | 54 | 78 | 0.0 | 0.0 | 0.00 | 0.00 | 0.00 | 77 | 1011.0 |
| 20260509094430 | 55 | 78 | 0.0 | 0.0 | 0.00 | 0.00 | 0.00 | 77 | 1011.0 |
| 20260509093430 | 55 | 79 | 0.0 | 0.0 | 0.00 | 0.00 | 0.00 | 77 | 1011.0 |
| 20260509092429 | 55 | 81 | 0.0 | 0.0 | 0.00 | 0.00 | 0.00 | 76 | 1011.0 |
| 20260509091428 | 55 | 81 | 0.0 | 0.0 | 0.00 | 0.00 | 0.00 | 76 | 1011.0 |
| 20260509090428 | 55 | 82 | 0.0 | 1.0 | 0.00 | 0.00 | 0.00 | 76 | 1011.0 |
| 20260509085427 | 55 | 82 | 0.0 | 0.0 | 0.00 | 0.00 | 0.00 | 75 | 1011.0 |
| 20260509084426 | 56 | 81 | 1.0 | 2.0 | 0.00 | 0.00 | 0.00 | 75 | 1011.0 |
| 20260509083426 | 55 | 314 | 1.0 | 3.0 | 0.00 | 0.00 | 0.00 | 75 | 1011.0 |
| 20260509082425 | 55 | 331 | 0.0 | 2.0 | 0.00 | 0.00 | 0.00 | 75 | 1011.0 |
| 20260509081424 | 55 | 345 | 1.0 | 2.0 | 0.00 | 0.00 | 0.00 | 74 | 1011.0 |
| 20260509080352 | 55 | 3 | 2.0 | 3.0 | 0.00 | 0.00 | 0.00 | 75 | 1011.0 |
| 20260509075352 | 55 | 20 | 1.0 | 2.0 | 0.00 | 0.00 | 0.00 | 74 | 1011.3 |
| 20260509074351 | 55 | 19 | 1.0 | 1.0 | 0.00 | 0.00 | 0.00 | 74 | 1011.3 |
| 20260509073319 | 56 | 19 | 0.0 | 1.0 | 0.00 | 0.00 | 0.00 | 72 | 1011.3 |
| 20260509072319 | 56 | 15 | 0.0 | 1.0 | 0.00 | 0.00 | 0.00 | 70 | 1011.4 |
| 20260509071318 | 57 | 15 | 0.0 | 0.0 | 0.00 | 0.00 | 0.00 | 69 | 1011.3 |
| 20260509070247 | 57 | 15 | 0.0 | 2.0 | 0.00 | 0.00 | 0.00 | 68 | 1011.4 |
| 20260509065246 | 57 | 23 | 1.0 | 2.0 | 0.00 | 0.00 | 0.00 | 68 | 1011.4 |
| 20260509064245 | 57 | 24 | 1.0 | 1.0 | 0.00 | 0.00 | 0.00 | 68 | 1011.7 |
| 20260509063244 | 57 | 24 | 0.0 | 2.0 | 0.00 | 0.00 | 0.00 | 67 | 1011.7 |
| 20260509062213 | 57 | 22 | 0.0 | 1.0 | 0.00 | 0.00 | 0.00 | 68 | 1011.7 |
| 20260509061212 | 57 | 9 | 0.0 | 1.0 | 0.00 | 0.00 | 0.00 | 67 | 1012.0 |
| 20260509060212 | 57 | 5 | 1.0 | 1.0 | 0.00 | 0.00 | 0.00 | 66 | 1011.7 |